GW5607 Weather Reports


time (UTC)temp
F
wind
direction
speed
knots
gust
knots
rain 1hr
in
rain 24hr
in
rain mn
in
humidity
%
barometer
mb
20260505092826 63 178 0.0 0.0 0.00 0.00 0.00 66 1008.0
20260505092324 64 180 0.0 0.0 0.00 0.00 0.00 66 1008.1
20260505091821 64 177 0.0 0.0 0.00 0.00 0.00 67 1008.1
20260505091319 64 175 0.0 0.0 0.00 0.00 0.00 66 1008.0
20260505090817 64 175 0.0 0.0 0.00 0.00 0.00 66 1007.9
20260505090315 64 170 0.0 0.0 0.00 0.00 0.00 66 1007.7
20260505085812 64 173 0.0 0.0 0.00 0.00 0.00 66 1007.8
20260505085310 63 169 0.0 0.0 0.00 0.00 0.00 66 1007.7
20260505084807 63 187 0.0 0.0 0.00 0.00 0.00 66 1007.7
20260505084306 64 176 0.0 0.0 0.00 0.00 0.00 66 1007.6
20260505083802 64 179 0.0 0.0 0.00 0.00 0.00 65 1007.8
20260505083259 64 173 0.0 0.0 0.00 0.00 0.00 65 1007.7
20260505082756 64 183 0.0 0.0 0.00 0.00 0.00 65 1007.7
20260505082253 64 184 0.0 0.0 0.00 0.00 0.00 65 1007.6
20260505081748 64 176 0.0 0.0 0.00 0.00 0.00 65 1007.8
20260505081246 64 170 0.0 0.0 0.00 0.00 0.00 65 1007.7
20260505080743 64 171 0.0 0.0 0.00 0.00 0.00 65 1007.7
20260505080238 64 168 0.0 0.0 0.00 0.00 0.00 64 1007.4
20260505075734 64 170 0.0 0.0 0.00 0.00 0.00 64 1007.7
20260505075232 64 170 0.0 0.0 0.00 0.00 0.00 64 1007.7
20260505074729 64 168 0.0 0.0 0.00 0.00 0.00 64 1007.6
20260505074226 64 177 0.0 0.0 0.00 0.00 0.00 63 1007.7
20260505073723 64 187 0.0 0.0 0.00 0.00 0.00 63 1007.7
20260505073221 64 192 0.0 0.0 0.00 0.00 0.00 63 1007.6
20260505072717 64 174 0.0 0.0 0.00 0.00 0.00 63 1007.4
20260505072213 64 195 0.9 0.9 0.00 0.00 0.00 63 1007.5
20260505071709 64 179 0.0 0.0 0.00 0.00 0.00 63 1007.6
20260505071207 64 166 1.7 1.7 0.00 0.00 0.00 63 1007.6
20260505070704 64 182 0.0 0.9 0.00 0.00 0.00 63 1007.5
20260505070200 64 192 0.0 0.9 0.00 0.00 0.00 63 1007.5
20260505065656 64 208 0.9 1.7 0.00 0.00 0.00 63 1007.5
20260505065153 64 168 0.0 0.0 0.00 0.00 0.00 63 1007.7
20260505064650 64 226 1.7 2.6 0.00 0.00 0.00 62 1008.0
20260505064148 65 174 0.0 0.9 0.00 0.00 0.00 62 1007.8
20260505063645 65 157 0.9 0.9 0.00 0.00 0.00 62 1008.2
20260505063141 65 178 0.0 0.0 0.00 0.00 0.00 62 1008.3
20260505062637 65 188 0.9 0.9 0.00 0.00 0.00 62 1008.5
20260505062135 65 177 0.9 0.9 0.00 0.00 0.00 62 1008.6
20260505061632 65 172 0.0 0.0 0.00 0.00 0.00 62 1008.5
20260505061130 65 172 0.0 0.0 0.00 0.00 0.00 62 1008.5
20260505060627 65 177 0.0 0.0 0.00 0.00 0.00 61 1008.5
20260505060124 65 172 0.0 0.0 0.00 0.00 0.00 61 1008.5
20260505055619 65 172 0.9 0.9 0.00 0.00 0.00 61 1008.8
20260505055116 65 171 0.9 1.7 0.00 0.00 0.00 61 1008.7
20260505054613 65 174 0.0 0.9 0.00 0.00 0.00 61 1008.7
20260505054112 65 174 0.9 0.9 0.00 0.00 0.00 61 1008.6
20260505053608 65 172 0.0 0.0 0.00 0.00 0.00 60 1008.7
20260505053105 65 176 0.0 0.0 0.00 0.00 0.00 61 1008.8
20260505052602 65 168 0.0 0.9 0.00 0.00 0.00 60 1008.7
20260505052059 65 179 0.0 0.9 0.00 0.00 0.00 60 1008.9
20260505051556 65 176 0.9 0.9 0.00 0.00 0.00 60 1008.8
20260505051054 65 163 0.9 1.7 0.00 0.00 0.00 59 1009.1
20260505050552 66 188 0.0 0.0 0.00 0.00 0.00 60 1008.9
20260505041520 66 176 0.9 0.9 0.00 0.00 0.00 58 1009.2
20260505041017 66 173 0.0 0.0 0.00 0.00 0.00 58 1009.0
20260505040514 66 184 0.0 0.0 0.00 0.00 0.00 58 1009.0
20260505040012 66 178 0.0 0.0 0.00 0.00 0.00 59 1009.2
20260505035507 66 177 0.0 0.0 0.00 0.00 0.00 58 1009.1
20260505035004 66 172 0.0 0.0 0.00 0.00 0.00 58 1009.3
20260505034501 66 171 0.0 0.0 0.00 0.00 0.00 58 1009.1
20260505033958 67 171 0.0 0.0 0.00 0.00 0.00 57 1009.2
20260505033455 67 173 0.0 0.0 0.00 0.00 0.00 56 1009.1
20260505032953 67 173 0.0 0.0 0.00 0.00 0.00 56 1008.9
20260505032450 68 174 0.0 0.0 0.00 0.00 0.00 55 1009.1
20260505031946 68 169 0.0 0.0 0.00 0.00 0.00 55 1008.9
20260505031443 68 175 0.0 0.0 0.00 0.00 0.00 55 1008.8
20260505030940 68 173 0.0 0.0 0.00 0.00 0.00 54 1008.9
20260505030436 69 173 0.0 0.0 0.00 0.00 0.00 54 1008.9
20260505025931 69 176 0.0 0.0 0.00 0.00 0.00 53 1008.6
20260505025429 69 170 0.0 0.9 0.00 0.00 0.00 53 1008.8
20260505024928 69 176 0.0 0.0 0.00 0.00 0.00 52 1008.5
20260505024425 69 185 0.0 0.9 0.00 0.00 0.00 52 1008.7
20260505023922 69 185 0.0 0.0 0.00 0.00 0.00 52 1008.4
20260505023419 69 182 0.0 0.0 0.00 0.00 0.00 52 1008.4
20260505022916 69 179 0.0 0.0 0.00 0.00 0.00 52 1008.3
20260505022414 69 177 0.0 0.0 0.00 0.00 0.00 52 1008.4
20260505021910 69 180 0.0 0.0 0.00 0.00 0.00 52 1008.2
20260505021407 70 176 0.0 0.0 0.00 0.00 0.00 51 1008.3
20260505020903 70 174 0.0 0.0 0.00 0.00 0.00 51 1008.2
20260505020358 70 170 0.0 0.0 0.00 0.00 0.00 51 1008.1
20260505015855 70 176 0.0 0.0 0.00 0.00 0.00 51 1008.1
20260505015352 70 175 0.0 0.0 0.00 0.00 0.00 51 1008.1
20260505014850 70 179 0.0 0.0 0.00 0.00 0.00 51 1008.1
20260505014347 70 181 0.0 0.0 0.00 0.00 0.00 51 1008.0
20260505013843 70 173 0.0 0.0 0.00 0.00 0.00 51 1007.9
20260505013340 71 183 0.0 0.0 0.00 0.00 0.00 50 1007.8
20260505012839 71 179 0.0 0.0 0.00 0.00 0.00 49 1008.0
20260505012336 71 177 0.0 0.0 0.00 0.00 0.00 49 1007.8
20260505011832 71 177 0.0 0.0 0.00 0.00 0.00 48 1007.8
20260505011329 71 173 0.0 0.0 0.00 0.00 0.00 48 1007.7
20260505010825 72 175 0.0 0.0 0.00 0.00 0.00 48 1007.7
20260505010321 72 171 0.0 0.0 0.00 0.00 0.00 47 1007.6
20260505005817 72 175 0.0 0.0 0.00 0.00 0.00 47 1007.6
20260505005315 72 188 0.0 0.9 0.00 0.00 0.00 46 1007.4
20260505004812 73 172 0.0 0.0 0.00 0.00 0.00 46 1007.7
20260505004308 73 170 0.0 0.0 0.00 0.00 0.00 45 1007.4
20260505003806 73 171 0.0 0.0 0.00 0.00 0.00 46 1007.7
20260505003303 73 180 0.9 0.9 0.00 0.00 0.00 45 1007.7
20260505002759 74 173 0.0 0.9 0.00 0.00 0.00 45 1007.7
20260505002256 74 181 0.0 0.9 0.00 0.00 0.00 44 1007.7
20260505001754 74 174 0.0 0.0 0.00 0.00 0.00 45 1007.8
20260505001251 75 184 0.9 1.7 0.00 0.00 0.00 43 1007.4
20260505000748 75 171 0.0 0.0 0.00 0.00 0.00 43 1007.7
20260505000246 75 182 0.0 0.0 0.00 0.00 0.00 43 1007.6
20260504235742 76 191 0.9 0.9 0.00 0.00 0.00 41 1007.6
20260504235238 76 173 0.9 1.7 0.00 0.00 0.00 41 1007.8
20260504234736 76 179 0.9 0.9 0.00 0.00 0.00 41 1007.7
20260504234233 77 172 1.7 2.6 0.00 0.00 0.00 41 1007.9
20260504233729 77 179 0.9 0.9 0.00 0.00 0.00 40 1007.8
20260504233225 77 176 1.7 2.6 0.00 0.00 0.00 40 1008.0
20260504232723 77 184 2.6 3.5 0.00 0.00 0.00 39 1008.1
20260504232219 77 169 0.0 0.0 0.00 0.00 0.00 41 1008.0
20260504231716 77 170 1.7 1.7 0.00 0.00 0.00 39 1008.0
20260504231213 78 94 1.7 3.5 0.00 0.00 0.00 39 1008.0
20260504230708 78 208 0.9 1.7 0.00 0.00 0.00 39 1008.1
20260504230208 78 212 1.7 2.6 0.00 0.00 0.00 38 1008.2
20260504225706 78 179 0.9 1.7 0.00 0.00 0.00 39 1008.2
20260504225201 79 214 1.7 1.7 0.00 0.00 0.00 38 1008.4
20260504224659 79 188 0.9 1.7 0.00 0.00 0.00 38 1008.2
20260504224156 79 158 0.9 1.7 0.00 0.00 0.00 38 1008.5
20260504223653 79 175 0.0 0.9 0.00 0.00 0.00 38 1008.4
20260504223148 79 183 1.7 2.6 0.00 0.00 0.00 38 1008.4
20260504222645 79 183 1.7 2.6 0.00 0.00 0.00 38 1008.4
20260504222142 79 229 3.5 3.5 0.00 0.00 0.00 38 1008.3
20260504221640 79 86 1.7 1.7 0.00 0.00 0.00 37 1008.1
20260504221136 80 237 4.3 6.1 0.00 0.00 0.00 37 1008.2
20260504220632 80 218 4.3 5.2 0.00 0.00 0.00 36 1008.2
20260504220131 80 191 0.0 0.9 0.00 0.00 0.00 37 1008.1
20260504215626 80 181 1.7 1.7 0.00 0.00 0.00 36 1008.1
20260504215124 80 212 1.7 2.6 0.00 0.00 0.00 36 1008.1
20260504214620 80 179 0.9 0.9 0.00 0.00 0.00 35 1008.2
20260504214116 81 215 1.7 1.7 0.00 0.00 0.00 35 1008.1
20260504213613 81 159 1.7 1.7 0.00 0.00 0.00 35 1008.1
20260504213110 81 185 1.7 2.6 0.00 0.00 0.00 35 1008.1
20260504212606 82 215 4.3 5.2 0.00 0.00 0.00 34 1008.3
20260504212103 81 163 1.7 2.6 0.00 0.00 0.00 34 1008.1
20260504211600 82 178 2.6 2.6 0.00 0.00 0.00 35 1008.2
20260504211057 81 259 4.3 5.2 0.00 0.00 0.00 34 1008.1
20260504210554 82 144 7.0 9.6 0.00 0.00 0.00 34 1007.9
20260504210050 82 190 1.7 2.6 0.00 0.00 0.00 35 1008.2
20260504205548 82 155 1.7 1.7 0.00 0.00 0.00 35 1008.2
20260504205046 82 150 2.6 2.6 0.00 0.00 0.00 36 1008.4
20260504204544 83 179 0.9 0.9 0.00 0.00 0.00 35 1008.2
20260504204043 82 171 0.9 1.7 0.00 0.00 0.00 38 1008.2
20260504203540 82 153 2.6 3.5 0.00 0.00 0.00 36 1008.4
20260504203038 82 227 2.6 5.2 0.00 0.00 0.00 37 1008.4
20260504202533 82 155 1.7 2.6 0.00 0.00 0.00 35 1008.5
20260504202030 82 186 1.7 2.6 0.00 0.00 0.00 35 1008.5
20260504201527 82 242 1.7 1.7 0.00 0.00 0.00 35 1008.9
20260504201025 82 154 2.6 3.5 0.00 0.00 0.00 35 1008.7
20260504200521 82 35 5.2 8.7 0.00 0.00 0.00 34 1008.8
20260504200018 82 227 2.6 3.5 0.00 0.00 0.00 34 1008.8
20260504195514 82 156 1.7 2.6 0.00 0.00 0.00 34 1008.9
20260504195011 82 223 2.6 2.6 0.00 0.00 0.00 34 1009.0
20260504194507 82 202 2.6 5.2 0.00 0.00 0.00 35 1008.8
20260504194002 82 158 1.7 1.7 0.00 0.00 0.00 36 1009.3
20260504193500 82 167 2.6 3.5 0.00 0.00 0.00 36 1009.3
20260504192959 81 215 1.7 2.6 0.00 0.00 0.00 37 1009.2
20260504192456 81 188 3.5 5.2 0.00 0.00 0.00 35 1009.1
20260504191954 82 225 5.2 7.0 0.00 0.00 0.00 33 1009.2
20260504191452 82 170 1.7 2.6 0.00 0.00 0.00 37 1009.4
20260504190947 82 219 3.5 3.5 0.00 0.00 0.00 36 1009.3
20260504190443 81 189 1.7 1.7 0.00 0.00 0.00 37 1009.5
20260504185940 81 219 1.7 2.6 0.00 0.00 0.00 36 1009.5
20260504185437 81 200 1.7 3.5 0.00 0.00 0.00 36 1009.5
20260504184933 82 222 5.2 6.1 0.00 0.00 0.00 37 1009.5
20260504184429 82 229 6.1 7.8 0.00 0.00 0.00 38 1009.4
20260504183925 82 218 1.7 2.6 0.00 0.00 0.00 36 1009.5
20260504183422 81 224 1.7 1.7 0.00 0.00 0.00 39 1009.7
20260504182920 80 198 3.5 3.5 0.00 0.00 0.00 38 1009.7
20260504182417 81 220 2.6 3.5 0.00 0.00 0.00 37 1009.6
20260504181914 80 179 0.9 0.9 0.00 0.00 0.00 38 1009.7
20260504181411 80 318 1.7 2.6 0.00 0.00 0.00 38 1009.8
20260504180910 80 199 1.7 2.6 0.00 0.00 0.00 37 1010.1
20260504180408 81 217 2.6 2.6 0.00 0.00 0.00 40 1010.1
20260504175906 80 203 1.7 1.7 0.00 0.00 0.00 39 1009.9
20260504175402 80 219 5.2 6.1 0.00 0.00 0.00 37 1010.2
20260504174900 79 208 2.6 3.5 0.00 0.00 0.00 40 1010.1
20260504174358 79 212 3.5 5.2 0.00 0.00 0.00 40 1010.1
20260504173855 79 225 3.5 3.5 0.00 0.00 0.00 40 1010.2
20260504173351 80 217 5.2 6.1 0.00 0.00 0.00 38 1010.3
20260504172849 80 133 0.9 1.7 0.00 0.00 0.00 38 1010.5
20260504172345 80 208 2.6 2.6 0.00 0.00 0.00 39 1010.6
20260504171841 80 224 2.6 3.5 0.00 0.00 0.00 40 1010.5
20260504171338 79 204 1.7 1.7 0.00 0.00 0.00 41 1010.6
20260504170835 78 191 3.5 3.5 0.00 0.00 0.00 43 1010.7
20260504170332 78 239 3.5 5.2 0.00 0.00 0.00 42 1010.9
20260504160250 78 201 1.7 2.6 0.00 0.00 0.00 45 1011.3
20260504150716 74 237 2.6 3.5 0.00 0.00 0.00 51 1011.9
20260504150213 73 183 0.0 0.9 0.00 0.00 0.00 54 1011.8
20260504141142 69 200 0.9 1.7 0.00 0.00 0.00 60 1012.2
20260504140639 68 199 1.7 1.7 0.00 0.00 0.00 63 1012.0
20260504140134 68 176 0.0 0.0 0.00 0.00 0.00 66 1011.8
20260504130602 63 184 0.9 0.9 0.00 0.00 0.00 69 1012.3
20260504110450 60 173 0.0 0.0 0.00 0.00 0.00 68 1011.4
20260504100412 62 180 0.0 0.0 0.00 0.00 0.00 63 1011.3